Vertical_Velocity
1 -3 -2 9 -0 -6 -5 3 -2 0 -2 -2 -6 3 0 -1 -1 2 2 1 3 3 2 0 14 -0 10 19 4 -14 7 4 20 10 24 32 -1 -11 -6 -5 0 2 1 -2
-8 9 -2 3 -1 -3 -3 -1 3 4 -4 -3 -1 7 0 -0 0 1 1 0 0 2 1 5 0 1 -2 2 33 13 5 1 5 -2 -4 36 5 -1 -1 -5 -1 -1 -1 1
-0 1 10 12 -2 -2 -2 0 -1 -0 -1 -2 -1 4 -3 -1 -1 3 -1 -0 -0 -2 2 3 4 -0 17 18 10 26 -18 9 19 15 3 1 1 16 -2 -1 4 2 6 2
-8 -3 3 1 1 -0 -2 -2 1 -2 2 4 1 -4 -6 -5 1 -0 0 -1 -2 1 0 -9 7 14 -10 -4 -4 2 31 3 -5 -0 4 -10 5 0 1 7 -3 11 5 3
1 1 2 2 -4 -1 -1 1 -1 1 1 -3 -2 -4 -3 0 -1 -1 -1 1 -0 -2 -1 3 -1 -9 3 12 3 -14 -6 14 19 -10 19 5 6 4 -1 2 16 -1 -1 2
-8 6 3 -4 1 -1 -0 -2 1 -1 -2 -1 1 -1 1 -2 0 -1 -1 -0 -0 -1 -1 -2 -4 -4 2 0 5 1 11 9 -1 -4 11 6 7 4 9 9 5 -4 -2 2
7 0 1 1 0 -3 -3 -4 0 1 -1 -2 -1 -0 0 -0 -4 1 -2 0 1 0 0 0 -1 -1 -1 -5 -2 -0 -8 -4 -3 13 11 -3 6 9 8 4 2 1 -4 2
-7 0 3 -1 -4 -3 -3 -3 -2 -1 -1 -0 0 1 -0 2 4 2 -2 5 1 0 -1 -1 0 -0 -2 -1 1 -1 -0 5 1 -4 -2 -4 4 9 -2 6 2 5 6 -2
-3 -16 5 -6 -1 -2 -2 -3 -3 -1 -2 -2 1 -0 0 1 -2 1 2 -9 -7 -5 -0 2 3 1 -2 -4 -3 -2 -1 -3 -6 2 4 3 7 -3 0 6 -2 -2 2 4
3 -2 -7 -0 -1 0 -1 -2 -2 -2 -1 -2 -1 -0 0 -1 1 4 -2 5 9 1 -2 6 2 -1 -6 -5 1 1 -2 -2 -5 -6 -3 -2 -1 -4 1 4 0 6 -1 3
-9 2 -5 -1 -1 -0 0 -1 -1 -2 -2 -2 -2 -1 -0 0 1 -0 -2 2 -0 0 5 13 7 8 5 2 1 1 -1 -2 -2 2 -1 -1 -0 0 1 -2 -3 -1 -4 0
-4 4 0 -3 -2 -1 -2 -1 -0 -0 -1 -2 -3 -5 -2 2 -0 -3 2 0 -1 -1 -3 0 -4 -4 -0 3 0 1 -0 -0 -1 -1 -2 -2 -3 -1 2 2 0 -1 -2 -1
-4 2 -1 0 -4 -3 -1 -1 0 -1 -1 1 -0 0 -2 -4 -7 -5 2 -2 -1 2 -3 -3 2 2 -2 -2 -5 -2 1 -1 -4 -1 1 -4 -1 2 -0 -1 0 0 1 2
0 2 1 2 -0 0 -1 -2 -2 0 -1 -2 -1 0 0 -0 -0 2 -0 -6 -3 6 6 1 5 3 -2 -2 -4 -2 -0 -1 -0 -0 -1 1 3 1 -1 -2 -1 -1 -0 -2
2 5 1 -0 0 1 0 -2 -2 -0 -0 -0 -3 -2 -1 -1 -2 -3 -4 -5 -6 -6 -9 -6 -4 -3 -4 1 -0 -1 -1 -0 -1 -1 1 -1 -1 -1 -2 -3 -2 -1 -1 -0
2 4 2 -0 1 1 -1 3 -1 3 -1 1 -2 -3 -3 -2 -1 -1 -1 -2 -1 -0 0 2 -3 -4 2 -3 -3 -1 -2 -4 -2 -1 -1 -0 -1 -1 -1 -0 -2 -2 -1 -0
-1 1 -0 -0 -2 0 -0 -1 0 2 2 -1 2 1 -3 -3 -2 0 -1 -2 -4 -4 -9 -13 -7 1 -0 1 -1 -4 -2 -1 -2 -2 -1 0 2 -2 0 1 1 -4 -2 -1
-2 -0 -1 -2 -1 2 1 -1 -3 0 1 2 0 -0 0 -1 -2 -3 -4 -5 -2 -1 1 4 3 2 0 1 2 1 1 -1 -2 -0 0 -0 -1 -0 -0 -1 -0 2 -2 -3
1 2 -0 -2 -3 -1 -0 -1 -0 -1 0 1 0 -1 1 0 1 0 -2 -2 -1 -3 3 -5 1 -2 -0 -1 -4 -2 -1 -1 -1 0 -0 -1 1 0 -0 -3 -2 -2 -1 -4
1 1 2 -0 -1 -1 2 -1 -1 -0 -1 -2 -0 0 0 0 -1 0 1 -0 0 -2 -2 -1 -5 -4 -2 -2 -2 -4 -3 -2 -3 -3 -3 -2 -0 -1 2 3 1 -3 -4 -2
-2 -1 -1 1 0 -1 -0 0 -1 -1 -0 -1 -2 -2 -1 0 1 -0 -1 -1 6 -2 -3 -1 -0 -2 -2 -2 -1 -1 -1 -1 -1 -1 -1 -1 -1 -1 -0 -0 1 -1 -1 -1
-1 -1 -0 -1 0 -1 0 -0 -0 -1 -1 -1 -1 -1 -1 0 -1 -0 1 -1 2 0 -0 1 1 0 -0 0 -2 -1 -1 -1 -0 -0 1 1 -0 -1 1 1 3 1 -2 -1
-2 -0 -1 0 0 0 -1 0 0 -0 -0 -0 -0 -1 -1 -0 -0 -2 1 -2 -2 2 -2 0 1 1 1 -0 -2 -0 0 0 1 1 1 2 3 4 2 2 -0 -1 1 2
-1 -1 -0 -1 -1 -0 -1 -1 1 -0 -1 -1 -0 -1 -1 -1 1 -3 -0 1 -2 -2 -1 1 -0 -1 1 -4 -1 1 2 2 2 1 -1 -2 -3 -2 -1 -1 -2 -2 -1 -1
-1 -2 -2 -1 -1 -0 0 -1 -1 -0 1 0 -0 -0 -0 -1 -0 2 -1 0 0 -1 -0 -1 -1 -0 -2 -0 -1 -0 1 1 1 -0 -1 -1 0 -2 -4 -3 -0 -1 -3 -3
-1 -1 -1 -2 0 -0 -1 -0 1 -0 -1 1 -0 -1 -0 -1 -0 -0 0 -1 1 -0 -0 -0 -0 -1 -0 0 -2 -2 -1 -0 -0 1 -2 -1 -1 -1 -1 -2 -3 -2 -2 -4
1 -2 -1 -0 -1 1 -0 -1 0 1 -1 -1 0 -2 -0 -0 -0 -0 -0 0 -0 -1 -1 -0 0 -1 -2 -1 0 -0 -1 -1 -2 -2 -1 -2 -2 -0 -0 -1 -2 -1 1 0
Height
3003 3000 3000 2999 2996 2992 2990 2988 2987 2986 2984 2983 2985 2984 2980 2979 2981 2980 2980 2981 2982 2984 2988 2993 2996 3005 3009 3014 3021 3025 3035 3041 3047 3057 3057 3066 3074 3080 3088 3095 3103 3111 3116 3120
2999 2997 2998 2998 2995 2994 2992 2989 2988 2988 2987 2985 2984 2982 2980 2979 2980 2981 2980 2981 2982 2984 2986 2990 2991 2997 3002 3011 3009 3012 3026 3033 3039 3046 3052 3051 3061 3071 3078 3086 3093 3101 3107 3113
2999 2998 2997 2997 2994 2993 2992 2990 2988 2987 2987 2986 2984 2979 2978 2979 2980 2979 2980 2981 2982 2984 2984 2986 2989 2994 2997 3002 3003 3010 3017 3022 3030 3036 3043 3048 3055 3062 3070 3079 3086 3092 3098 3103
3001 2997 2994 2995 2993 2991 2990 2989 2987 2985 2982 2980 2977 2978 2979 2979 2978 2977 2978 2979 2980 2981 2983 2986 2989 2990 2990 2996 3006 3006 3006 3013 3021 3029 3030 3040 3047 3053 3060 3067 3077 3081 3087 3092
3003 3000 2997 2994 2993 2991 2989 2989 2986 2984 2982 2979 2978 2978 2977 2978 2977 2976 2976 2976 2978 2979 2981 2983 2984 2989 2993 2993 2996 2999 3007 3010 3010 3018 3025 3032 3038 3044 3053 3056 3065 3071 3076 3082
3003 3001 2994 2993 2992 2991 2988 2986 2985 2983 2981 2980 2979 2978 2977 2976 2974 2974 2974 2973 2974 2976 2976 2978 2983 2986 2987 2990 2992 2997 3000 3003 3006 3012 3017 3020 3027 3036 3043 3050 3054 3059 3065 3072
3002 3000 2995 2992 2992 2990 2989 2990 2983 2982 2981 2979 2978 2977 2975 2973 2971 2972 2971 2971 2971 2972 2973 2974 2976 2980 2984 2986 2988 2990 2994 2998 3005 3006 3008 3014 3020 3025 3031 3037 3044 3048 3055 3060
3001 2997 2994 2992 2990 2991 2988 2983 2981 2980 2978 2977 2976 2974 2973 2971 2970 2969 2970 2969 2969 2969 2970 2970 2972 2973 2976 2982 2986 2988 2992 2992 2995 2999 3004 3008 3012 3015 3021 3026 3032 3037 3042 3048
3003 2997 2992 2988 2986 2984 2981 2979 2977 2976 2975 2974 2973 2971 2970 2969 2968 2967 2966 2967 2968 2968 2968 2968 2968 2969 2970 2972 2977 2981 2984 2987 2991 2994 2995 2999 3002 3008 3013 3018 3023 3028 3032 3038
2995 2991 2986 2983 2981 2980 2978 2975 2973 2972 2970 2970 2969 2968 2967 2966 2965 2964 2964 2965 2966 2965 2966 2965 2964 2966 2967 2968 2970 2972 2976 2980 2983 2987 2991 2993 2996 3001 3005 3008 3013 3017 3023 3026
2987 2986 2982 2979 2977 2975 2974 2972 2970 2968 2966 2965 2965 2964 2963 2963 2962 2961 2961 2961 2962 2961 2960 2960 2961 2962 2963 2964 2964 2966 2968 2971 2974 2977 2981 2985 2989 2993 2996 2999 3003 3007 3011 3017
2982 2980 2978 2975 2972 2970 2968 2967 2966 2965 2963 2961 2961 2960 2960 2959 2959 2958 2958 2957 2957 2957 2957 2956 2957 2957 2959 2960 2961 2962 2964 2965 2967 2970 2972 2976 2979 2983 2986 2989 2993 2996 3000 3005
2976 2974 2972 2969 2967 2964 2963 2962 2961 2961 2959 2958 2957 2956 2956 2956 2955 2955 2954 2953 2953 2954 2954 2953 2954 2954 2955 2955 2957 2958 2959 2960 2963 2964 2966 2968 2971 2973 2975 2978 2981 2985 2988 2992
2971 2968 2966 2964 2961 2959 2957 2956 2955 2955 2955 2954 2953 2952 2951 2951 2950 2950 2949 2950 2951 2950 2949 2948 2948 2950 2950 2951 2951 2952 2953 2954 2957 2958 2960 2961 2963 2964 2966 2969 2971 2974 2977 2980
2966 2964 2961 2958 2955 2952 2950 2949 2949 2949 2949 2949 2949 2949 2948 2947 2946 2946 2946 2945 2945 2945 2944 2942 2942 2943 2942 2943 2944 2945 2946 2947 2949 2950 2952 2954 2955 2956 2958 2961 2963 2965 2967 2969
2962 2959 2956 2953 2949 2945 2942 2942 2942 2943 2942 2943 2943 2943 2943 2943 2942 2942 2941 2939 2939 2938 2938 2937 2938 2937 2936 2937 2938 2939 2940 2941 2942 2943 2944 2946 2947 2948 2950 2952 2954 2955 2957 2959
2955 2953 2950 2946 2941 2938 2935 2934 2934 2935 2936 2936 2936 2936 2936 2936 2936 2935 2934 2934 2933 2933 2932 2932 2932 2931 2930 2930 2930 2931 2932 2933 2933 2935 2937 2938 2939 2941 2942 2943 2944 2946 2948 2949
2949 2946 2943 2939 2935 2931 2929 2926 2925 2926 2928 2929 2929 2929 2929 2928 2928 2927 2926 2925 2925 2925 2925 2924 2924 2923 2922 2922 2922 2923 2923 2924 2925 2926 2927 2929 2930 2932 2934 2934 2936 2937 2938 2940
2944 2941 2937 2933 2929 2925 2922 2920 2919 2919 2919 2920 2920 2921 2921 2920 2920 2919 2918 2917 2916 2915 2915 2914 2914 2914 2914 2914 2914 2914 2915 2916 2917 2917 2918 2920 2921 2922 2924 2925 2927 2927 2929 2931
2939 2935 2931 2927 2923 2920 2917 2915 2913 2913 2912 2912 2913 2913 2912 2912 2911 2910 2909 2907 2907 2906 2905 2904 2904 2905 2905 2906 2906 2906 2907 2907 2908 2908 2909 2910 2912 2913 2914 2915 2916 2918 2919 2921
2934 2929 2925 2921 2918 2915 2912 2910 2909 2907 2907 2906 2905 2905 2904 2904 2903 2902 2901 2899 2899 2897 2896 2896 2895 2895 2895 2896 2896 2897 2898 2898 2899 2899 2900 2901 2901 2902 2904 2905 2906 2907 2909 2910
2928 2924 2919 2916 2913 2910 2908 2906 2904 2903 2902 2901 2900 2899 2898 2897 2896 2895 2893 2892 2891 2890 2888 2887 2887 2887 2887 2887 2887 2887 2888 2889 2889 2890 2890 2891 2892 2893 2894 2894 2895 2896 2898 2900
2924 2919 2915 2911 2908 2906 2904 2902 2901 2899 2898 2896 2895 2893 2892 2891 2889 2888 2887 2885 2884 2883 2881 2880 2880 2879 2878 2878 2877 2877 2878 2878 2879 2880 2881 2882 2882 2883 2884 2884 2885 2886 2888 2889
2918 2913 2909 2906 2903 2901 2899 2898 2897 2895 2893 2892 2890 2888 2886 2884 2883 2881 2879 2878 2877 2875 2874 2873 2872 2871 2870 2869 2869 2869 2870 2870 2869 2869 2870 2870 2871 2872 2874 2875 2876 2878 2879 2879
2912 2908 2904 2901 2899 2897 2895 2894 2892 2890 2888 2886 2884 2881 2879 2878 2877 2875 2873 2871 2870 2868 2867 2866 2864 2863 2861 2861 2860 2860 2859 2859 2859 2859 2859 2860 2860 2861 2862 2864 2866 2867 2868 2869
2906 2902 2899 2896 2894 2892 2890 2889 2887 2885 2882 2881 2878 2875 2873 2871 2869 2867 2866 2865 2863 2862 2860 2859 2857 2856 2854 2853 2851 2850 2850 2849 2849 2849 2848 2848 2848 2849 2850 2851 2853 2854 2856 2857
2900 2897 2894 2892 2889 2887 2886 2884 2883 2880 2877 2875 2873 2869 2867 2864 2862 2861 2859 2858 2856 2854 2853 2851 2849 2847 2845 2844 2842 2841 2840 2839 2838 2837 2837 2837 2837 2837 2837 2838 2839 2840 2842 2844